CZ-2D DEB

Satellite information

Favourite Embed

Satellite Type and Status

DEBRISIN ORBIT

Key statistics

Satellite CZ-2D DEB at a glance.

Uptime

2592

Days in orbit

Revolutions

≈ 15.0

Per day

Orbit

SSO

Sun Synchronous Orbit

Inclination

98.3

Latest

Satellite identification and parameters

Extended collection of information and parameters for CZ-2D DEB.

Object identification

Identified? True

Debris? True

Object name: CZ-2D DEB

International designator: 2018-048F

Object number (NORAD): 44619

Object ID (CCSDS): 44619

Country: PEOPLES REPUBLIC OF CHINA (PRC)

Current information (Y/N): Y

RCS size: SMALL

Orbital parameters

Period: 96.066 minutes

Inclination: 98.2944 deg

SMA: 6948.229 km

Apoapsis: 577.996 km

Periapsis: 562.191 km

RAAN: 6.0172 deg

Eccentricy: 0.0011373

Argument of periapsis: 266.7007 deg

Mean anomaly: 93.2913 deg

Mean motion: 14.98965391 rev/day

Mean motion (dot): 0.00005076 rev/day2

B* drag term: 0.00042418 1/REarth

Two-line elements (TLE)

Creation date: July 6, 2025, 6:05 p.m.

Reference frame: TEME

Reference center: EARTH

Epoch: July 6, 2025, 10:36 a.m. UTC

TLE line 0: 0 CZ-2D DEB

TLE line 1: 1 44619U 18048F 25187.44233834 .00005076 00000-0 42418-3 0 9999

TLE line 2: 2 44619 98.2944 6.0172 0011373 266.7007 93.2913 14.98965391379765

Live tracking on map

Real-time ground track for satellite CZ-2D DEB.

In-orbit conjunctions

A list of the most updated potential collisions computed for object CZ-2D DEB.

Target Orbit TCA Probability of collision Miss distance Type
TIROS 5 LEO 2025-05-29 19:10:32 0.000254684 454.0 (m) PAYLOAD

Associated space launch

Gaofen is a series of civilian Earth observation satellites developed and launched for the China High-definition Earth Observation System (CHEOS), a state-sponsored programme aimed to develop a near-real time, all-weather, global surveillance network consisting of satellite, near-space (stratosphere) airships, and aerial observation platforms. Luojia-1 is a 6U Earth observation cubesat prototype.

CZ-2D DEB was lifted into orbit during the mission ‘Long March 2D | Gaofen 6 & Luojia-1’, on board a Long March 2D space rocket.

The launch took place on June 2, 2018, 4:13 a.m. from Launch Area 4 (SLS-2 / 603).

For more information about the launch, click the button.

Launch to space Long March 2D | Gaofen 6 & Luojia-1
Long March 2D | Gaofen 6 & Luojia-1

Agency: N/A

Status: Launch Successful

Launch date: June 2, 2018, 4:13 a.m. UTC

Rocket: Long March 2D

Launch pad: Launch Area 4 (SLS-2 / 603)

Location: Jiuquan Satellite Launch Center, People's Republic of China

...

Latest news about this satellite

There are no fresh news available about this satellite. Check back as we update our databases every day.


Newsletter sign-up

Weekly statistics, charts and insights to help you stay on top of the space industry.